[[{"header":{"parameterUnit":"m.s-1","parameterCategory":1,"la1":30.2991,"la2":30.254,"lo1":-89.0895,"lo2":-89.0444,"dy":0.0017,"dx":0.0017,"nx":28,"ny":28,"refTime":"2023-09-26T09:00:00:Z","depth":0,"parameterNumber":2,"parameterNumberName":"U-component_of_WINDS"},"data":[0,0,0,0,0,0,0,0,0,0,0,0,0,0,0,0,0,0,0,0,0,0,0,0,0,0,0,0,0,0,0,0,0,0,0,0,0,0,0,0,0,0,0,0,0,0,0,0,0,0,0,0,0,0,0,0,0,0,-4.3627,-4.363,0,-4.386,-4.3863,-4.3865,-4.3872,-4.3869,-4.3866,-4.3863,-4.4104,-4.4113,-4.4122,0,0,0,0,0,0,0,0,0,0,0,0,0,-4.3192,-4.32,-4.3627,-4.363,-4.3633,-4.386,-4.3863,-4.3866,-4.3872,-4.3869,-4.3865,-4.3862,-4.4101,-4.4112,-4.4123,0,0,0,0,0,0,0,0,0,0,0,0,0,-4.3398,-4.3202,-4.3626,-4.3663,-4.3669,-4.3859,-4.3863,-4.3867,-4.3873,-4.3869,-4.3864,-4.386,-4.4098,-4.4111,-4.4125,-4.4294,0,0,-4.4166,-4.4172,0,0,0,0,0,0,0,0,-4.3387,-4.3414,-4.3655,-4.3661,-4.3668,-4.3832,-4.3798,-4.401,-4.3874,-4.3796,-4.3863,-4.3858,-4.4018,-4.4038,-4.4091,-4.4306,-4.4316,-4.4167,-4.4176,-4.4182,-4.4185,0,0,0,0,0,0,0,-4.3372,-4.3404,-4.3719,-4.3658,-4.3666,-4.3669,-4.3694,-4.3838,-4.3928,-4.3802,-4.3803,-4.383,-4.402,-4.4078,-4.4096,-4.4319,-4.4167,-4.4179,-4.4188,-4.4193,-4.4687,-4.4692,0,0,0,0,0,0,-4.335,-4.3392,-4.3712,-4.3726,-4.3514,-4.3681,-4.3708,-4.3784,-4.3926,-4.3944,-4.3834,-4.383,-4.4056,-4.408,-4.4105,-4.4313,-4.4181,-4.4194,-4.4202,-4.4682,-4.4688,-4.4693,0,0,0,0,0,0,-4.3341,-4.3379,-4.3702,-4.356,-4.3601,-4.3693,-4.3778,-4.3791,-4.3848,-4.395,-4.3967,-4.3876,-4.4054,-4.4086,-4.4247,-4.4321,-4.42,-4.4213,-4.4676,-4.4684,-4.4691,-4.473,0,0,0,0,0,0,-4.3328,-4.3375,-4.3439,-4.3561,-4.3609,-4.384,-4.3782,-4.3798,-4.3871,-4.3868,-4.3994,-4.401,-4.4053,-4.4227,-4.4261,-4.4338,-4.4223,-4.467,-4.468,-4.4688,-4.4722,-4.4738,-4.4751,0,0,0,0,0,-4.3313,-4.3442,-4.3443,-4.3481,-4.3691,-4.3844,-4.3871,-4.3917,-4.3877,-4.3943,-4.4009,-4.4006,-4.4308,-4.4243,-4.4282,-4.4364,-4.4665,-4.4677,-4.4688,-4.4716,-4.4735,-4.4751,0,0,0,0,0,0,-4.3326,-4.3458,-4.3461,-4.3632,-4.3727,-4.3844,-4.3929,-4.3935,-4.4043,-4.4036,-4.4089,-4.4118,-4.4278,-4.4338,-4.4263,-4.4537,-4.4482,-4.4502,-4.4491,-4.451,-4.4524,-4.4505,-4.4235,0,0,0,0,0,-4.3349,-4.3462,-4.3571,-4.3712,-4.376,-4.3836,-4.3905,-4.3932,-4.4032,-4.4072,-4.415,-4.4248,-4.4365,-4.4441,-4.4555,-4.4732,-4.476,-4.4808,-4.4822,-4.4834,-4.4849,-4.4948,-4.497,-4.473,-4.473,-4.473,0,0,-4.3398,-4.3484,-4.3551,-4.3717,-4.3793,-4.3909,-4.387,-4.3994,-4.4081,-4.4091,-4.4248,-4.4309,-4.4423,-4.4593,-4.4672,-4.4647,-4.4922,-4.4848,-4.4856,-4.4865,-4.4962,-4.4984,-4.5004,-4.4738,-4.4736,-4.4735,0,0,-4.3545,-4.3622,-4.3747,-4.3825,-4.3941,-4.3992,-4.4022,-4.414,-4.4181,-4.4339,-4.4349,-4.4455,-4.4655,-4.4736,-4.4803,-4.4984,-4.4986,-4.502,-4.5093,-4.5189,-4.5208,-4.5225,-4.5289,-4.5311,-4.5035,-4.5036,-4.5036,0,-4.3591,-4.3764,-4.3812,-4.3936,-4.4009,-4.4025,-4.4153,-4.4227,-4.4374,-4.4425,-4.4396,-4.4649,-4.4726,-4.4915,-4.496,-4.5014,-4.5051,-4.5004,-4.5201,-4.5219,-4.5236,-4.5297,-4.5321,-4.5039,-4.5038,-4.5038,-4.5038,0,-4.3815,-4.3936,-4.4024,-4.4165,-4.4249,-4.4375,-4.4442,-4.4521,-4.4542,-4.4596,-4.4758,-4.4853,-4.4985,-4.5033,-4.5055,-4.5227,-4.5208,-4.519,-4.5136,-4.5261,-4.532,-4.5344,-4.5043,-4.5042,-4.5041,-4.5041,0,0,-4.3974,-4.4141,-4.4173,-4.4237,-4.4368,-4.4463,-4.4591,-4.472,-4.4787,-4.489,-4.4998,-4.5169,-4.5154,-4.523,-4.5262,-4.5346,-4.5483,-4.5318,-4.5322,-4.5344,-4.5678,-4.5689,-4.5715,-4.5486,-4.5491,-4.5495,-4.5668,0,-4.4134,-4.4359,-4.4407,-4.4602,-4.4715,-4.4733,-4.4845,-4.4938,-4.4993,-4.5097,-4.5159,-4.5278,-4.5249,-4.5296,-4.538,-4.5448,-4.5551,-4.5437,-4.5588,-4.5593,-4.5556,-4.5746,-4.5758,-4.5917,-4.5691,-4.5695,-4.5698,0,-4.435,-4.4457,-4.4663,-4.478,-4.4829,-4.4928,-4.5051,-4.5151,-4.5258,-4.5292,-4.5379,-4.5402,-4.5537,-4.548,-4.5667,-4.5589,-4.5654,-4.5697,-4.5705,-4.5719,-4.5651,-4.5764,-4.5969,-4.5992,-4.5735,-4.5732,-4.5729,0,-4.4444,-4.464,-4.4788,-4.4844,-4.4984,-4.5053,-4.5115,-4.5218,-4.5293,-4.5402,-4.5452,-4.5575,-4.5642,-4.5738,-4.5795,-4.5748,-4.5979,-4.5925,-4.6011,-4.6009,-4.6056,-4.6052,-4.6272,-4.6102,-4.6102,-4.6101,-4.6101,0,-4.4616,-4.4741,-4.4832,-4.4924,-4.5065,-4.512,-4.5259,-4.5321,-4.5413,-4.5518,-4.5542,-4.564,-4.571,-4.5819,-4.5865,-4.6013,-4.6044,-4.6076,-4.6086,-4.6073,-4.6068,-4.6114,-4.6104,-4.6108,-4.6106,-4.6105,-4.6104,0,-4.4743,-4.4809,-4.4973,-4.5093,-4.5126,-4.5225,-4.5328,-4.5418,-4.5475,-4.5607,-4.5642,-4.5731,-4.586,-4.5927,-4.6089,-4.612,-4.6286,-4.6291,-4.6249,-4.6253,-4.6334,-4.6325,-4.6591,-4.6628,-4.6434,-4.6436,-4.6437,0,-4.4848,-4.4944,-4.5075,-4.5146,-4.5209,-4.5325,-4.5402,-4.5461,-4.554,-4.567,-4.5745,-4.5876,-4.5983,-4.6189,-4.6269,-4.6393,-4.64,-4.6485,-4.6419,-4.6402,-4.64,-4.6393,-4.6403,-4.6495,-4.6497,-4.6499,-4.65,0,-4.5026,-4.5054,-4.5163,-4.5285,-4.5377,-4.5476,-4.5573,-4.5631,-4.5706,-4.5795,-4.5927,-4.601,-4.6175,-4.6305,-4.6435,-4.6501,-4.6514,-4.6521,-4.6547,-4.6533,-4.6504,-4.6519,-4.6279,-4.6513,-4.6512,-4.6511,-4.651,-4.651,-4.5144,-4.5231,-4.5336,-4.5458,-4.5538,-4.5629,-4.572,-4.5788,-4.5899,-4.6037,-4.6066,-4.6206,-4.6313,-4.6489,-4.6559,-4.6671,-4.6653,-4.6691,-4.6701,-4.6709,-4.6711,-4.6488,-4.6695,-4.6695,-4.6694,-4.6694,-4.6694,0,-4.5322,-4.5392,-4.5503,-4.5639,-4.5735,-4.5739,-4.5848,-4.5928,-4.605,-4.6149,-4.6254,-4.6406,-4.6533,-4.6624,-4.6753,-4.6824,-4.6834,-4.6856,-4.6851,-4.6866,-4.672,-4.6684,-4.6847,-4.6847,-4.6847,-4.6847,-4.6847,-4.6846,-4.5426,-4.5573,-4.5615,-4.5803,-4.5872,-4.6008,-4.607,-4.6155,-4.6233,-4.6402,-4.6507,-4.6565,-4.6661,-4.6798,-4.6914,-4.6938,-4.6984,-4.7006,-4.703,-4.6892,-4.6876,-4.686,-4.6826,-4.7016,-4.7016,-4.7166,-4.7167,-4.7168]},{"header":{"parameterUnit":"m.s-1","parameterCategory":1,"la1":30.2991,"la2":30.254,"lo1":-89.0895,"lo2":-89.0444,"dy":0.0017,"dx":0.0017,"nx":28,"ny":28,"refTime":"2023-09-26T09:00:00:Z","depth":0,"parameterNumber":3,"parameterNumberName":"V-component_of_WINDS"},"data":[0,0,0,0,0,0,0,0,0,0,0,0,0,0,0,0,0,0,0,0,0,0,0,0,0,0,0,0,0,0,0,0,0,0,0,0,0,0,0,0,0,0,0,0,0,0,0,0,0,0,0,0,0,0,0,0,0,0,2.5897,2.5897,0,2.5943,2.5944,2.5944,2.599,2.5991,2.5992,2.5992,2.6035,2.6036,2.6037,0,0,0,0,0,0,0,0,0,0,0,0,0,2.5844,2.5845,2.5897,2.5897,2.5898,2.5943,2.5944,2.5944,2.599,2.5991,2.5992,2.5993,2.6035,2.6036,2.6037,0,0,0,0,0,0,0,0,0,0,0,0,0,2.5876,2.5845,2.5897,2.5926,2.5929,2.5943,2.5944,2.5945,2.599,2.5991,2.5992,2.5993,2.6035,2.6036,2.6037,2.6023,0,0,2.6039,2.604,0,0,0,0,0,0,0,0,2.5875,2.5878,2.5921,2.5924,2.5928,2.5962,2.5941,2.5971,2.599,2.5967,2.5992,2.5993,2.601,2.6013,2.602,2.6025,2.6027,2.6039,2.604,2.604,2.6041,0,0,0,0,0,0,0,2.5872,2.5877,2.5915,2.5922,2.5926,2.5936,2.5942,2.5947,2.5982,2.5969,2.5972,2.5978,2.6012,2.6019,2.6021,2.6028,2.6039,2.604,2.6041,2.6041,2.6026,2.6025,0,0,0,0,0,0,2.5866,2.5874,2.5913,2.5916,2.5903,2.5936,2.5943,2.595,2.5983,2.5989,2.5977,2.598,2.6017,2.602,2.6023,2.6009,2.604,2.6041,2.6042,2.6027,2.6026,2.6025,0,0,0,0,0,0,2.5865,2.5869,2.5912,2.5896,2.5903,2.5936,2.5944,2.595,2.5957,2.5989,2.5995,2.5977,2.6018,2.6021,2.6023,2.6011,2.6042,2.6042,2.6028,2.6027,2.6025,2.5982,0,0,0,0,0,0,2.5863,2.5868,2.5864,2.5896,2.5903,2.5912,2.5944,2.5951,2.5959,2.5963,2.5991,2.5996,2.6019,2.6022,2.6024,2.6013,2.6043,2.6029,2.6027,2.6026,2.5985,2.598,2.5975,0,0,0,0,0,2.5861,2.5849,2.5864,2.5868,2.5899,2.5912,2.5916,2.5943,2.5958,2.5954,2.5974,2.5995,2.6013,2.6022,2.6025,2.6014,2.603,2.6028,2.6026,2.5987,2.5981,2.5975,0,0,0,0,0,0,2.5812,2.5854,2.587,2.5868,2.5886,2.5919,2.5914,2.5935,2.5948,2.5951,2.5983,2.5989,2.5987,2.6001,2.601,2.6003,2.6024,2.6023,2.5994,2.5988,2.5983,2.5979,2.6044,0,0,0,0,0,2.5802,2.581,2.5845,2.584,2.5849,2.588,2.5886,2.5906,2.5926,2.5933,2.5953,2.597,2.598,2.5985,2.5995,2.5988,2.5994,2.5982,2.5977,2.5973,2.5971,2.5968,2.5963,2.6018,2.6018,2.6018,0,0,2.5779,2.5803,2.5806,2.5831,2.5847,2.5854,2.5886,2.5891,2.5896,2.5933,2.5937,2.5952,2.5973,2.5971,2.5971,2.5982,2.5957,2.597,2.5967,2.5967,2.5965,2.596,2.5955,2.6017,2.6017,2.6017,0,0,2.5742,2.5761,2.5759,2.5775,2.5801,2.5822,2.5822,2.5852,2.5864,2.5869,2.5897,2.5903,2.5919,2.5933,2.5942,2.5912,2.5931,2.5914,2.5888,2.5885,2.5881,2.5877,2.5866,2.5861,2.5912,2.5912,2.5912,0,2.571,2.5722,2.5755,2.5759,2.577,2.5806,2.5804,2.5818,2.5844,2.585,2.5863,2.5884,2.5901,2.5902,2.5895,2.5901,2.5901,2.591,2.5879,2.5876,2.5872,2.5862,2.5858,2.591,2.591,2.591,2.5911,0,2.5682,2.5691,2.5686,2.5713,2.5723,2.5724,2.5756,2.5762,2.5781,2.5801,2.5805,2.5827,2.5843,2.5845,2.5863,2.5849,2.5855,2.5873,2.5895,2.5864,2.5855,2.5851,2.5907,2.5907,2.5908,2.5909,0,0,2.5613,2.566,2.5657,2.5671,2.5702,2.5708,2.5711,2.5729,2.5733,2.575,2.5753,2.5766,2.5784,2.5794,2.5815,2.5812,2.5787,2.5831,2.5832,2.5821,2.5772,2.5757,2.5752,2.5801,2.58,2.58,2.577,0,2.558,2.5589,2.5619,2.5618,2.5626,2.5662,2.5664,2.5683,2.5702,2.5711,2.5732,2.5741,2.5763,2.577,2.5769,2.579,2.5777,2.5793,2.5802,2.5802,2.5795,2.5747,2.5732,2.5702,2.5767,2.5766,2.5766,0,2.5542,2.5559,2.556,2.5592,2.5597,2.5599,2.5617,2.5626,2.5648,2.5662,2.5675,2.5699,2.5703,2.5725,2.5731,2.5741,2.5747,2.5757,2.5757,2.5758,2.5781,2.5746,2.5694,2.5688,2.576,2.5761,2.5761,0,2.549,2.5514,2.5517,2.5528,2.5566,2.5566,2.5582,2.5606,2.5615,2.5631,2.5637,2.5653,2.5661,2.5672,2.5699,2.5713,2.5702,2.5726,2.5712,2.5711,2.5707,2.5706,2.5653,2.5713,2.5713,2.5713,2.5713,0,2.5449,2.5448,2.5495,2.5497,2.5497,2.5532,2.553,2.5549,2.557,2.5576,2.5607,2.5612,2.5648,2.5656,2.5677,2.5679,2.5682,2.5693,2.5698,2.5689,2.5688,2.5692,2.5694,2.5712,2.5712,2.5712,2.5712,0,2.5391,2.5423,2.5429,2.5466,2.5475,2.5473,2.5504,2.5507,2.5529,2.5536,2.5539,2.5573,2.5584,2.5613,2.5632,2.5646,2.5641,2.5652,2.5634,2.5637,2.5622,2.5622,2.5569,2.5563,2.5627,2.5626,2.5625,0,2.5362,2.5362,2.54,2.5407,2.5422,2.5433,2.5443,2.5477,2.5486,2.5513,2.5512,2.5527,2.554,2.5556,2.5582,2.5596,2.5607,2.5587,2.5609,2.56,2.5605,2.5604,2.5604,2.5582,2.5581,2.558,2.5579,0,2.5307,2.5323,2.5337,2.5357,2.5369,2.5386,2.5404,2.5408,2.5447,2.5455,2.5468,2.5479,2.5499,2.5512,2.5531,2.5546,2.5568,2.5573,2.557,2.556,2.5549,2.5554,2.5619,2.5573,2.5574,2.5574,2.5575,2.5575,2.5262,2.5264,2.5291,2.5306,2.5324,2.5341,2.5346,2.537,2.5382,2.5403,2.5423,2.5433,2.5457,2.5485,2.5498,2.5506,2.5518,2.5514,2.5513,2.5512,2.5507,2.555,2.551,2.551,2.551,2.5511,2.5511,0,2.5208,2.5228,2.5242,2.5268,2.5279,2.5303,2.5325,2.5332,2.5342,2.5363,2.5376,2.5391,2.5405,2.5433,2.5449,2.545,2.5461,2.5453,2.5452,2.5455,2.5496,2.5496,2.5444,2.5444,2.5444,2.5444,2.5444,2.5444,2.5181,2.5186,2.5206,2.522,2.524,2.5253,2.5263,2.5279,2.5296,2.5312,2.5325,2.5343,2.5367,2.5385,2.5398,2.5406,2.541,2.5398,2.5409,2.5446,2.5452,2.5458,2.5459,2.5399,2.5399,2.5367,2.5366,2.5366]}]]